Weather History for Sisters Island, BC

Change the Weather History Date:

Thursday, June 13, 2013

  Actual Average Record
Temperature  
Mean Temperature 58 °F -  
Max Temperature 62 °F - - ()
Min Temperature 54 °F - - ()
Degree Days  
Heating Degree Days 7    
Growing Degree Days 8 (Base 50)    
Moisture  
Dew Point 50 °F    
Average Humidity 72    
Maximum Humidity 84    
Minimum Humidity 54    
Precipitation  
Precipitation 0.00 in - - ()
Sea Level Pressure  
Sea Level Pressure 30.14 in    
Wind  
Wind Speed 7 mph ()    
Max Wind Speed 21 mph    
Max Gust Speed 17 mph    
T = Trace of Precipitation, MM = Missing Value Source: Averaged Metar Reports

Daily Weather History Graph

Daily Weather History Graph

Search for Another Location

Airport:

Trip Planner

Search our weather history database for the weather conditions in past years. The results will help you decide how hot, cold, wet, or windy it might be!

Date:

Astronomy

Jun. 13, 2013 Rise Set
Actual Time 5:10 AM PDT 9:25 PM PDT
Civil Twilight 4:27 AM PDT 10:08 PM PDT
Nautical Twilight 3:24 AM PDT 11:11 PM PDT
Astronomical Twilight 1:50 AM PDT 12:45 AM PDT
Moon 10:15 AM PDT (6/13) No Moon Set
Length of Visible Light 17h 41m
Length of Day
16h 14m
Waxing Crescent, 22% of the Moon is Illuminated
Jun 13
Waxing Crescent
Jun 16
First Quarter
Jun 23
Full
Jun 29
Last Quarter
Jul 8
New

Hourly Weather History & Observations

Time (PDT) Temp. Dew Point Humidity Pressure Visibility Wind Dir Wind Speed Gust Speed Precip Events Conditions
12:00 AM 57.0 °F 50.5 °F 79% 30.12 in - West 3.5 mph - N/A   Unknown
1:00 AM 56.3 °F 50.9 °F 82% 30.13 in - West 6.9 mph - N/A   Unknown
2:00 AM 56.3 °F 51.3 °F 83% 30.13 in - NNW 6.9 mph - N/A   Unknown
3:00 AM 55.0 °F 49.1 °F 80% 30.13 in - West 6.9 mph - N/A   Unknown
4:00 AM 54.7 °F 48.9 °F 81% 30.14 in - WNW 5.8 mph - N/A   Unknown
5:00 AM 55 °F 50 °F 78% 30.13 in - WNW 9.2 mph - -  
5:00 AM 55.0 °F 50.0 °F 83% 30.13 in - WNW 9.2 mph - N/A   Unknown
6:00 AM 54.7 °F 50.0 °F 84% 30.14 in - West 8.1 mph - N/A   Unknown
7:00 AM 55.2 °F 49.6 °F 81% 30.14 in - WNW 9.2 mph - N/A   Unknown
8:00 AM 55.9 °F 49.3 °F 78% 30.15 in - NW 10.4 mph - N/A   Unknown
9:00 AM 58.5 °F 49.3 °F 72% 30.16 in - WNW 6.9 mph - N/A   Unknown
10:00 AM 59.2 °F 49.5 °F 70% 30.16 in - WNW 5.8 mph - N/A   Unknown
11:00 AM 59 °F 50 °F 64% 30.16 in - NNW 5.8 mph - -  
11:00 AM 59.2 °F 50.2 °F 72% 30.16 in - NNW 5.8 mph - N/A   Unknown
12:00 PM 60.6 °F 48.6 °F 64% 30.16 in - North 5.8 mph - N/A   Unknown
1:00 PM 59.5 °F 47.3 °F 64% 30.15 in - NNE 8.1 mph - N/A   Unknown
2:00 PM 60.1 °F 47.3 °F 63% 30.14 in - NNE 8.1 mph - N/A   Unknown
3:00 PM 62.1 °F 49.8 °F 64% 30.14 in - NNW 10.4 mph - N/A   Unknown
4:00 PM 61.0 °F 49.1 °F 65% 30.14 in - WNW 11.5 mph - N/A   Unknown
5:00 PM 62 °F 50 °F 54% 30.14 in - WNW 4.6 mph - -  
5:00 PM 62.2 °F 49.6 °F 63% 30.14 in - WNW 4.6 mph - N/A   Unknown
6:00 PM 62.8 °F 49.6 °F 62% 30.14 in - West 1.2 mph - N/A   Unknown
7:00 PM 62.1 °F 51.3 °F 68% 30.14 in - North 3.5 mph - N/A   Unknown
8:00 PM 61.5 °F 50.5 °F 67% 30.14 in - West 10.4 mph 17.3 mph N/A   Unknown
9:00 PM 60.3 °F 50.9 °F 71% 30.14 in - WSW 18.4 mph - N/A   Unknown
10:00 PM 59.4 °F 50.7 °F 73% 30.14 in - WSW 18.4 mph - N/A   Unknown
11:00 PM 59 °F 51 °F 67% 30.14 in - WSW 20.7 mph - -  
11:00 PM 58.6 °F 50.9 °F 75% 30.14 in - WSW 20.7 mph - N/A   Unknown